Regional Weather Roundup
Issued by NWS

Home | Current Version | Previous Version | Text Only | Print | Product List | Glossary Off
Versions: 1 2 3 4 5 6 7 8 9 10 11 12 13 14 15 16 17 18 19 20 21 22 23 24 25 26 27 28 29 30 31 32 33 34 35 36 37 38 39 40 41 42 43 44 45 46 47 48 49 50

000
ASUS43 KOAX 221502
RWRNE

WEATHER ROUNDUP FOR NEBRASKA
NATIONAL WEATHER SERVICE OMAHA NE
900 AM CST SAT NOV 22 2014

NOTES: SATELLITE DATA IS BEING USED TO AUGMENT CLOUD COVER ABOVE
       12000 FEET.
       "FAIR" INDICATES FEW OR NO CLOUDS BELOW 12,000 FEET WITH NO
       SIGNIFICANT WEATHER AND/OR OBSTRUCTIONS TO VISIBILITY.

  * THESE STATIONS DO NOT REPORT WEATHER SUCH AS RAIN...SNOW OR FOG.

NEZ001>004-019>022-054>056-221600-
NEBRASKA PANHANDLE

CITY           SKY/WX    TMP DP  RH WIND       PRES   REMARKS
SCOTTSBLUFF    CLOUDY    39  22  50 S9        29.70F WCI  33
ALLIANCE       PTSUNNY   44  23  43 SW15      29.67F
CHADRON        CLOUDY    47  23  38 SW15      29.58F
KIMBALL        PTSUNNY   33  20  58 W5        29.72F WCI  29
SIDNEY         MOSUNNY   41  21  44 SW13      29.73F
$$

NEZ057>060-069>072-079>082-221600-
SOUTHWEST NEBRASKA

CITY           SKY/WX    TMP DP  RH WIND       PRES   REMARKS
NORTH PLATTE   SUNNY     25  22  88 CALM      29.77F
IMPERIAL       SUNNY     32  20  61 SW6       29.76F WCI  26
LEXINGTON      SUNNY    N/A N/A N/A CALM      29.78F HAZE
MCCOOK         MOSUNNY   27  21  78 W3        29.79F
OGALLALA       SUNNY     27  23  87 W5        29.76F WCI  21
$$

NEZ005>010-023>029-035>040-094-221600-
NORTH CENTRAL NEBRASKA

CITY           SKY/WX    TMP DP  RH WIND       PRES   REMARKS
VALENTINE      SUNNY     34  26  72 SW10      29.64F WCI  26
AINSWORTH      SUNNY     39  25  56 SW10      29.67F WCI  32
BROKEN BOW     SUNNY     35  30  82 SW5       29.75F WCI  31
O`NEILL        SUNNY     33  30  88 S9        29.71S WCI  25
ORD            SUNNY     29  26  89 CALM      29.75S FOG
THEDFORD       SUNNY     35  27  70 CALM      29.71F
$$

NEZ041-046>049-061>064-073>077-083>087-221600-
SOUTH CENTRAL NEBRASKA

CITY           SKY/WX    TMP DP  RH WIND       PRES   REMARKS
GRAND ISLAND   MOSUNNY  N/A N/A N/A S9        29.80F FOG
AURORA         FOG       35  35 100 SW8       29.81F VSB 1/4 WCI  29
HASTINGS       FOG       32  31  96 SW8       29.80F VSB 1/2 WCI  25
HEBRON         FOG       37  36  94 SW9       29.86F VSB 3/4 WCI  31
HOLDREGE       SUNNY     29  26  90 SW5       29.79F WCI  24
KEARNEY *      SUNNY     28  27  93 S8        29.80F WCI  20
YORK           FOG       36  36 100 SW10      29.82F VSB<1/4 WCI  28
$$

NEZ011>018-030>034-042>045-221600-
NORTHEAST NEBRASKA

CITY           SKY/WX    TMP DP  RH WIND       PRES   REMARKS
NORFOLK        CLOUDY    34  33  96 SW14      29.78F FOG     WCI  25
ALBION         CLOUDY    30  28  90 S6        29.78F FOG     WCI  24
BLAIR          FOG       39  37  93 S9        29.83F VSB 1/2 WCI  33
COLUMBUS *     CLOUDY    36  34  93 SW9       29.83F WCI  29
FREMONT        CLOUDY    38  38  97 SW8       29.83F FOG     WCI  32
TEKAMAH        CLOUDY    39  36  89 S12       29.82F FOG     WCI  32
WAYNE          CLOUDY    36  35  96 SW13G18   29.78F FOG     WCI  27
$$

NEZ050>053-065>068-078-088>093-221600-
SOUTHEAST NEBRASKA

CITY           SKY/WX    TMP DP  RH WIND       PRES   REMARKS
LINCOLN        CLOUDY    39  36  89 SW14      29.86F FOG     WCI  31
OMAHA EPPLEY   CLOUDY    40  38  93 S13       29.86S FOG     WCI  32
BEATRICE       CLOUDY    39  39 100 S9        29.87F FOG     WCI  32
FALLS CITY     CLOUDY    45  43  93 SW14G21   29.90S FOG
NEBRASKA CITY  CLOUDY    40  40  99 SW14      29.87F FOG     WCI  33
PLATTSMOUTH    FOG       39  37  94 S14       29.86S VSB 1/2 WCI  31
$$

NEZ044-045-051>053-067-221600-
OMAHA AREA

CITY           SKY/WX    TMP DP  RH WIND       PRES   REMARKS
OMAHA EPPLEY   CLOUDY    40  38  93 S13       29.86S FOG     WCI  32
BLAIR          FOG       39  37  93 S9        29.83F VSB 1/2 WCI  33
FREMONT        CLOUDY    38  38  97 SW8       29.83F FOG     WCI  32
MILLARD        CLOUDY    40  38  93 SW5       29.85S FOG
OFFUTT AFB     CLOUDY    40  38  95 S8        29.85F FOG     WCI  34
PLATTSMOUTH    FOG       39  37  94 S14       29.86S VSB 1/2 WCI  31
WAHOO          CLOUDY    38  36  92 SW9       29.83F FOG     WCI  31
$$



USA.gov is the U.S. government's official web portal to all federal, state and local government web resources and services.